Location: Sternwarte_Laufen
(47.9344°N, 12.9346°E)
Time: 00:42:08
(UTC+02:00)

ISS - Pass Details

Date: 20 May 2017
Orbit: 402 x 408 km, 51.6° (Epoch: 27 May)

Event Time Altitude Azimuth Distance (km) Brightness Sun altitude
Exits shadow 00:42:45 13° 74° (ENE) 1,314 -1.2 -21.9°
Drops below altitude 10° 00:43:11 10° 72° (ENE) 1,486 -0.8 -21.9°
Sets 00:45:15 0° 68° (ENE) 2,329 0.2 -22.0°
